• In Russia
  • List of Countries
  • For 7 days
  • Water Temperature
  • Satellite Maps
  • Weather Map
  • Weather Widgets
  • user-avatar
    Login

    Hourly Weather Glasgow

    Today, 13 December, Thursday

    Time Temperature Precipitation Wind Pressure Humidity
    00:00 +3°C° 0 mm 11 mps 763 mmHg 75%
    01:00 +3°C° 0.1 mm 11 mps 763 mmHg 75%
    02:00 +3°C° 0.1 mm 11 mps 762 mmHg 75%
    03:00 +3°C° 0.1 mm 11 mps 762 mmHg 76%
    04:00 +3°C° 0 mm 11 mps 762 mmHg 75%
    05:00 +3°C° 0 mm 11 mps 762 mmHg 75%
    06:00 +3°C° 0 mm 11 mps 762 mmHg 75%
    07:00 +3°C° 0.1 mm 11 mps 762 mmHg 74%
    08:00 +3°C° 0.1 mm 12 mps 763 mmHg 74%
    09:00 +3°C° 0.1 mm 12 mps 763 mmHg 74%
    10:00 +3°C° 0 mm 12 mps 763 mmHg 73%
    11:00 +3°C° 0 mm 12 mps 763 mmHg 73%
    12:00 +3°C° 0 mm 12 mps 763 mmHg 72%
    13:00 +3°C° 0 mm 11 mps 763 mmHg 72%
    14:00 +3°C° 0 mm 11 mps 763 mmHg 72%
    15:00 +3°C° 0 mm 11 mps 764 mmHg 72%
    16:00 +3°C° 0 mm 10 mps 764 mmHg 73%
    17:00 +3°C° 0 mm 10 mps 764 mmHg 74%
    18:00 +3°C° 0 mm 10 mps 765 mmHg 75%
    19:00 +3°C° 0 mm 10 mps 765 mmHg 75%
    20:00 +2°C° 0 mm 9 mps 765 mmHg 75%
    21:00 +2°C° 0 mm 9 mps 765 mmHg 75%
    22:00 +2°C° 0 mm 9 mps 766 mmHg 75%
    23:00 +2°C° 0 mm 9 mps 766 mmHg 76%

    Tomorrow, 14 December, Friday

    Time Temperature Precipitation Wind Pressure Humidity
    00:00 +2°C° 0 mm 8 mps 766 mmHg 76%
    01:00 +2°C° 0 mm 8 mps 766 mmHg 77%
    02:00 +1°C° 0 mm 8 mps 766 mmHg 77%
    03:00 +1°C° 0 mm 8 mps 766 mmHg 78%
    04:00 +1°C° 0 mm 8 mps 766 mmHg 78%
    05:00 +1°C° 0 mm 8 mps 766 mmHg 78%
    06:00 +1°C° 0 mm 8 mps 766 mmHg 78%
    07:00 +1°C° 0.1 mm 8 mps 766 mmHg 78%
    08:00 +1°C° 0.1 mm 8 mps 766 mmHg 79%
    09:00 +1°C° 0.1 mm 8 mps 766 mmHg 80%
    10:00 +1°C° 0.1 mm 8 mps 766 mmHg 77%
    11:00 +2°C° 0.1 mm 8 mps 766 mmHg 74%
    12:00 +2°C° 0.1 mm 8 mps 765 mmHg 72%
    13:00 +2°C° 0 mm 8 mps 765 mmHg 72%
    14:00 +2°C° 0 mm 9 mps 765 mmHg 73%
    15:00 +1°C° 0 mm 9 mps 765 mmHg 73%
    16:00 +1°C° 0 mm 9 mps 765 mmHg 73%
    17:00 +1°C° 0 mm 9 mps 764 mmHg 73%
    18:00 +1°C° 0 mm 10 mps 764 mmHg 74%
    19:00 +1°C° 0 mm 10 mps 764 mmHg 73%
    20:00 +1°C° 0 mm 11 mps 764 mmHg 73%
    21:00 +1°C° 0 mm 11 mps 763 mmHg 73%
    22:00 +1°C° 0 mm 11 mps 763 mmHg 72%
    23:00 +1°C° 0 mm 11 mps 763 mmHg 71%

    Day after tomorrow, 15 December, Saturday

    Time Temperature Precipitation Wind Pressure Humidity
    00:00 0°C° 0 mm 12 mps 763 mmHg 70%
    01:00 0°C° 0 mm 12 mps 762 mmHg 70%
    02:00 0°C° 0 mm 12 mps 761 mmHg 70%
    03:00 0°C° 0 mm 13 mps 761 mmHg 69%
    04:00 0°C° 0 mm 13 mps 760 mmHg 70%
    05:00 0°C° 0 mm 13 mps 760 mmHg 71%
    06:00 0°C° 0 mm 13 mps 759 mmHg 71%
    07:00 0°C° 0 mm 14 mps 758 mmHg 72%
    08:00 0°C° 0 mm 14 mps 758 mmHg 72%
    09:00 0°C° 0 mm 15 mps 757 mmHg 72%
    10:00 +1°C° 0.1 mm 15 mps 756 mmHg 73%
    11:00 +1°C° 0.1 mm 15 mps 756 mmHg 74%
    12:00 +1°C° 0.1 mm 15 mps 755 mmHg 75%
    13:00 +1°C° 0.5 mm 15 mps 754 mmHg 77%
    14:00 +1°C° 0.5 mm 15 mps 753 mmHg 79%
    15:00 +1°C° 0.5 mm 15 mps 752 mmHg 81%
    16:00 +1°C° 0.4 mm 15 mps 751 mmHg 81%
    17:00 +1°C° 0.4 mm 16 mps 749 mmHg 81%
    18:00 +1°C° 0.4 mm 16 mps 748 mmHg 81%
    19:00 +1°C° 1.3 mm 17 mps 747 mmHg 81%
    20:00 +1°C° 1.3 mm 17 mps 746 mmHg 82%
    21:00 +1°C° 1.3 mm 18 mps 744 mmHg 83%
    22:00 +1°C° 2.5 mm 18 mps 743 mmHg 84%
    23:00 +2°C° 2.5 mm 18 mps 741 mmHg 85%

    16 December, Sunday

    Time Temperature Precipitation Wind Pressure Humidity
    00:00 +2°C° 2.5 mm 18 mps 740 mmHg 86%
    01:00 +3°C° 1.1 mm 17 mps 739 mmHg 87%
    02:00 +4°C° 1.1 mm 16 mps 737 mmHg 88%
    03:00 +5°C° 1.1 mm 16 mps 736 mmHg 89%
    04:00 +4°C° 0.3 mm 15 mps 736 mmHg 86%
    05:00 +4°C° 0.3 mm 14 mps 736 mmHg 83%
    06:00 +4°C° 0.3 mm 13 mps 737 mmHg 80%
    07:00 +3°C° 0 mm 13 mps 738 mmHg 77%
    08:00 +3°C° 0 mm 13 mps 740 mmHg 73%
    09:00 +3°C° 0 mm 12 mps 742 mmHg 69%
    10:00 +3°C° 0 mm 11 mps 744 mmHg 71%
    11:00 +3°C° 0 mm 10 mps 745 mmHg 72%
    12:00 +3°C° 0 mm 9 mps 747 mmHg 74%
    13:00 +3°C° 0 mm 9 mps 748 mmHg 76%
    14:00 +2°C° 0 mm 8 mps 748 mmHg 78%
    15:00 +2°C° 0 mm 8 mps 749 mmHg 81%
    16:00 +3°C° 0 mm 7 mps 750 mmHg 82%
    17:00 +2°C° 0 mm 7 mps 750 mmHg 84%
    18:00 +2°C° 0 mm 6 mps 751 mmHg 85%
    19:00 +2°C° 0 mm 6 mps 751 mmHg 86%
    20:00 +2°C° 0 mm 6 mps 752 mmHg 87%
    21:00 +2°C° 0 mm 6 mps 752 mmHg 87%
    22:00 +2°C° 0 mm 6 mps 752 mmHg 88%
    23:00 +2°C° 0 mm 6 mps 753 mmHg 88%

    17 December, Monday

    Time Temperature Precipitation Wind Pressure Humidity
    00:00 +2°C° 0 mm 5 mps 753 mmHg 88%
    01:00 +2°C° 0 mm 5 mps 753 mmHg 88%
    02:00 +2°C° 0 mm 5 mps 753 mmHg 88%
    03:00 +1°C° 0 mm 5 mps 753 mmHg 88%
    04:00 +1°C° 0 mm 5 mps 754 mmHg 89%
    05:00 +1°C° 0 mm 5 mps 754 mmHg 89%
    06:00 +1°C° 0 mm 4 mps 755 mmHg 89%
    07:00 +1°C° 0 mm 4 mps 755 mmHg 90%
    08:00 +1°C° 0 mm 4 mps 756 mmHg 91%
    09:00 +1°C° 0 mm 4 mps 756 mmHg 91%
    10:00 +1°C° 0 mm 4 mps 756 mmHg 90%
    11:00 +3°C° 0 mm 4 mps 757 mmHg 89%
    12:00 +3°C° 0 mm 4 mps 757 mmHg 87%
    13:00 +3°C° 0 mm 4 mps 757 mmHg 89%
    14:00 +3°C° 0 mm 4 mps 757 mmHg 90%
    15:00 +3°C° 0 mm 4 mps 757 mmHg 91%
    16:00 +2°C° 0 mm 5 mps 757 mmHg 92%
    17:00 +2°C° 0 mm 5 mps 757 mmHg 92%
    18:00 +2°C° 0 mm 6 mps 757 mmHg 92%
    19:00 +2°C° 0 mm 7 mps 757 mmHg 91%
    20:00 +3°C° 0 mm 7 mps 757 mmHg 91%
    21:00 +2°C° 0 mm 8 mps 757 mmHg 90%
    22:00 +2°C° 0 mm 8 mps 757 mmHg 88%
    23:00 +2°C° 0 mm 9 mps 756 mmHg 86%

    18 December, Tuesday

    Time Temperature Precipitation Wind Pressure Humidity
    00:00 +2°C° 0 mm 10 mps 756 mmHg 84%
    01:00 +3°C° 0 mm 10 mps 756 mmHg 85%
    02:00 +3°C° 0 mm 11 mps 755 mmHg 86%
    03:00 +3°C° 0 mm 11 mps 755 mmHg 87%
    04:00 +3°C° 0.1 mm 11 mps 754 mmHg 88%
    05:00 +4°C° 0.1 mm 12 mps 753 mmHg 88%
    06:00 +4°C° 0.1 mm 12 mps 753 mmHg 89%
    07:00 +4°C° 0.5 mm 12 mps 752 mmHg 89%
    08:00 +4°C° 0.5 mm 13 mps 752 mmHg 90%
    09:00 +5°C° 0.5 mm 13 mps 752 mmHg 90%
    10:00 +5°C° 0.6 mm 13 mps 751 mmHg 90%
    11:00 +5°C° 0.6 mm 13 mps 751 mmHg 90%
    12:00 +5°C° 0.6 mm 13 mps 751 mmHg 90%
    13:00 +5°C° 1 mm 13 mps 750 mmHg 91%
    14:00 +5°C° 1 mm 13 mps 750 mmHg 91%
    15:00 +5°C° 1 mm 12 mps 749 mmHg 92%
    16:00 +5°C° 1.1 mm 12 mps 749 mmHg 92%
    17:00 +5°C° 1.1 mm 12 mps 749 mmHg 91%
    18:00 +6°C° 1.1 mm 11 mps 749 mmHg 91%
    19:00 +6°C° 0.6 mm 11 mps 749 mmHg 91%
    20:00 +6°C° 0.6 mm 11 mps 749 mmHg 91%
    21:00 +4°C° 0.6 mm 11 mps 749 mmHg 91%
    22:00 +4°C° 0.6 mm 11 mps 749 mmHg 91%
    23:00 +4°C° 0.6 mm 11 mps 749 mmHg 90%
    Show more